sat.trackr.live / text

‹ back to catalog

STARLINK-31732

NORAD 60099 · 2024-117J

PAYLOAD ACTIVE UNKNOWN

§ Identity

Operator
Country
US
Launch date
2024-06-23
Launch site
AFETR
Launch vehicle
Mass (kg)
RCS (m²)

Purposes: comms

External: N2YO · Heavens-Above · Gunter

§ Orbital elements

Epoch: 2026-05-24T23:44:33.018720Z

Period
94.11 min
Inclination
53.1614°
Eccentricity
0.0001295
Mean motion
15.30191414 rev/d
Perigee alt
474.4 km
Apogee alt
476.1 km
Semi-major
6,853.4 km
B*
3.2213e-5
RAAN
42.3372°
Arg perigee
83.0683°
Mean anomaly
277.0465°
Rev number
10,857

§ Raw data

STARLINK-317321 60099U 24117J   26144.98927105  .00000595  00000+0  32213-4 0  99902 60099  53.1614  42.3372 0001295  83.0683 277.0465 15.30191414108573

JSON: /api/v1/satellites/60099 · /tle

For live sub-satellite position, see the globe view (requires WebGL).

§ Visibility from observer

Set your observer location to see the next 7 days of passes ≥ 10°. The values pass through the URL so the page stays shareable.

No JS? Fill the form by hand. The geolocation button needs JavaScript.